Location: Molino di Ancona
(43.6167°N, 13.3667°E)
Time: 21:33:57
(UTC+00:00)

Cosmos 2026 Rocket - Pass Details

Date: 15 December 2019
Orbit: 940 x 1000 km, 82.9° (Epoch: 29 January)

Event Time Altitude Azimuth Distance (km) Brightness Sun altitude
Exits shadow 04:40:38 18° 332° (NNW) 2,182 5.5 -19.4°
Maximum altitude 04:44:51 43° 271° (W) 1,346 4.3 -18.7°
Drops below altitude 10° 04:50:42 10° 202° (SSW) 2,736 6.3 -17.7°
Sets 04:53:20 0° 195° (SSW) 3,688 7.0 -17.2°
